Location: *
(57.8420°S, 159.8600°W)
Time: 13:06:20
(UTC+00:00)

Cosmos 2026 Rocket - Pass Details

Date: 18 May 2021
Orbit: 940 x 1000 km, 82.9° (Epoch: 22 June)

Event Time Altitude Azimuth Distance (km) Brightness Sun altitude
Rises 04:05:56 0° 5° (N) 3,726 7.2 -12.6°
Reaches altitude 10° 04:08:29 10° 8° (N) 2,781 6.5 -12.9°
Maximum altitude 04:14:46 61° 86° (E) 1,134 4.1 -13.8°
Drops below altitude 10° 04:21:04 10° 164° (SSE) 2,782 6.1 -14.6°
Sets 04:23:37 0° 166° (SSE) 3,727 6.8 -14.9°
